www.pogodaiklimat.ru
ПОГОДА в Замостье
Время
(UTC), дата
22 27.07
23 27.07
00 28.07
01 28.07
02 28.07
03 28.07
04 28.07
05 28.07
06 28.07
07 28.07
08 28.07
09 28.07
10 28.07
11 28.07
12 28.07
13 28.07
14 28.07
15 28.07
16 28.07
17 28.07
18 28.07
19 28.07
20 28.07
21 28.07
22 28.07
23 28.07
00 29.07
01 29.07
02 29.07
03 29.07
04 29.07
05 29.07
06 29.07
07 29.07
08 29.07
09 29.07
10 29.07
11 29.07
12 29.07
13 29.07
14 29.07
15 29.07
16 29.07
17 29.07
18 29.07
19 29.07
20 29.07
21 29.07
22 29.07
23 29.07
00 30.07
01 30.07
02 30.07
03 30.07
04 30.07
05 30.07
06 30.07
07 30.07
08 30.07
09 30.07
10 30.07
11 30.07
12 30.07
13 30.07
14 30.07
15 30.07
16 30.07
17 30.07
18 30.07
19 30.07
20 30.07
21 30.07
22 30.07
23 30.07
00 31.07
01 31.07
02 31.07
03 31.07
04 31.07
05 31.07
06 31.07
07 31.07
08 31.07
09 31.07
10 31.07
11 31.07
12 31.07
13 31.07
14 31.07
15 31.07
16 31.07
17 31.07
18 31.07
19 31.07
20 31.07
21 31.07
22 31.07
23 31.07
00 1.08
01 1.08
02 1.08
03 1.08
04 1.08
05 1.08
06 1.08
07 1.08
08 1.08
09 1.08
10 1.08
11 1.08
12 1.08
13 1.08
14 1.08
15 1.08
16 1.08
17 1.08
18 1.08
19 1.08
20 1.08
21 1.08
22 1.08
23 1.08
00 2.08
01 2.08
02 2.08
03 2.08
04 2.08
05 2.08
06 2.08
07 2.08
08 2.08
09 2.08
10 2.08
11 2.08
12 2.08
13 2.08
14 2.08
15 2.08
16 2.08
17 2.08
18 2.08
19 2.08
20 2.08
21 2.08
22 2.08
23 2.08
00 3.08
01 3.08
02 3.08
03 3.08
04 3.08
05 3.08
06 3.08
07 3.08
08 3.08
09 3.08
10 3.08
11 3.08
12 3.08
13 3.08
14 3.08
15 3.08
16 3.08
17 3.08
18 3.08
19 3.08
21 3.08
22 3.08
Ветер
(напр.,м/с)
Видим. Явления Облачность Т
(С)
Тd
(С)
f
(%)
Тe
(С)
Тes
(С)
Комфортность P
(гПа)
Po
(гПа)
Тmin
(С)
Tmax
(С)
R
(мм)
R24
(мм)
S
(см)
ЮЗ 1 20 км н/о +15.5 +14.4 93 +16 +16 1016.9 990.5
ЮЗ 1 20 км н/о +15.2 +14.2 94 +16 +16 1016.9 990.4
ЮЗ 1 20 км н/о +14.5 +13.7 95 +15 +15 1016.7 990.2 0.0
Ю 2 15 км н/о +14.2 +13.6 96 +14 +14 1016.4 989.9
Ю 1 9000 м дымка н/о +13.8 +13.5 98 +14 +14 1016.4 989.8
ЮЗ 2 11 км н/о +13.4 +13.1 98 +13 +13 1016.3 989.7
ЮЗ 1 16 км н/о +15.4 +15.1 98 +16 +16 1016.4 990.0
ЮЗ 1 20 км н/о +17.3 +16.2 93 +18 +18 1016.3 990.0
ЮЗ 2 20 км 9/0
[Ac trans Cs]
+20.9 +16.7 77 +25 +29 комфорт 1015.8 989.9 +13.1 +22.1 0.0 0.0
Ю 2 20 км 9/0
[Ac trans Cs]
+22.9 +16.0 65 +27 +33 душно 1015.8 990.0
ЮЗ 3 20 км 6/0
[Ac trans Ci sp]
+24.6 +16.3 60 +28 +35 душно 1015.3 989.7
Ю 4 20 км 4/1 1000 м
[Cu hum Ac trans Ci sp]
+25.6 +15.6 54 +29 +36 душно 1014.9 989.4
Ю 4 20 км 4/1 1000 м
[Cu hum Ci sp]
+27.0 +14.7 47 +30 +38 душно 1014.3 988.9
ЮЗ 3 20 км 3/1 1000 м
[Cu hum Ci sp]
+28.2 +14.8 44 +31 +42 душно 1013.5 988.3
Ю 4 20 км 4/3 1000 м
[Cu hum Ci fib]
+28.6 +14.4 42 +31 +37 жарко 1012.9 987.7
Ю 4 20 км 5/4 1000 м
[Cu med, cong Ci fib]
+29.5 +16.0 44 +33 +37 душно 1012.5 987.4
Ю 4 20 км 4/4 1000 м
[Cu med, cong]
+28.7 +15.2 44 +31 +35 жарко 1012.3 987.1
Ю 5 20 км 4/3 1500 м
[Cu med, cong Ci sp]
+29.1 +16.0 45 +32 +34 душно 1012.0 986.9
ЮЗ 5 20 км 3/1 1500 м
[Cu hum Ci sp]
+28.5 +14.3 42 +31 +32 душно 1012.1 986.9
Ю 3 20 км 1/0
[Ac trans Ci fib]
+26.9 +15.6 50 +30 +30 душно 1011.9 986.6
Ю 2 20 км 1/0
[Ac trans Ci fib]
+25.0 +16.4 59 +28 +28 жарко 1011.9 986.4 +20.9 +29.7
Ю 3 17 км ливневой дождь н/о +22.7 +16.9 70 +27 +27 душно 1012.3 986.6
Ю 2 20 км н/о +21.1 +17.1 78 +25 +25 комфорт 1012.4 986.6
Ю 2 20 км н/о +21.5 +17.5 78 +26 +26 душно 1012.2 986.4
Ю 4 20 км н/о +21.8 +17.6 77 +26 +26 душно 1011.9 986.2
Ю 5 20 км н/о +21.9 +17.7 77 +26 +26 душно 1012.0 986.3
ЮЗ 6 20 км н/о +22.2 +17.6 75 +27 +27 душно 1011.8 986.1 0.0
ЮЗ 5 20 км н/о +21.9 +17.3 75 +26 +26 душно 1011.3 985.6
ЮЗ 5 20 км слаб. морось н/о +21.6 +17.6 78 +26 +26 душно 1011.7 985.9
ЮЗ 3 20 км ливневой дождь н/о +20.3 +18.1 87 +24 +24 комфорт 1012.2 986.3
ЮЗ 2 20 км в посл. час дождь н/о +20.1 +18.2 89 +24 +24 комфорт 1012.4 986.5
Ю 2 20 км н/о +21.2 +18.4 84 +25 +25 комфорт 1012.5 986.7
З 5
{7}
20 км 8/0
[Ac trans Cs]
+22.7 +18.0 75 +28 +30 душно 1013.0 987.3 +19.9 +25.0 0.4 0.4
З 6 20 км 6/1 600 м
[Cu hum Ac trans Ci fib]
+23.7 +18.1 71 +28 +30 душно 1013.6 988.0
СЗ 4 20 км 8/3 600 м
[Cu med, cong Ac trans Ci fib]
+24.3 +18.5 70 +29 +32 душно 1014.2 988.6
З 4 20 км 9/5 600 м
[Cu med, cong Ac trans Cs]
+24.9 +18.1 66 +29 +32 душно 1014.7 989.1
СЗ 5 20 км слаб. ливневой дождь 9/6 600 м
[Cb calv Cs]
+25.0 +17.7 64 +29 +32 душно 1015.1 989.5
СЗ 2 20 км в посл. час ливневой дождь 9/5 600 м
[Cb calv Ac trans Cs]
+24.9 +17.1 62 +29 +33 душно 1014.9 989.3
С 6
{19}
20 км гроза без осадков {ливн. дождь} 9/9 600 м
[Cb cap]
+17.2 +14.3 83 +16 +17 1016.5 990.2 0.6
С 1 20 км в посл. час гроза 4/4 1000 м
[Cb calv]
+24.0 +16.5 63 +27 +35 жарко 1015.4 989.8
СЗ 2 20 км 4/3 1000 м
[Cu med, cong Ci sp]
+25.7 +17.4 60 +30 +35 душно 1015.3 989.8
СЗ 5 20 км {гроза} 4/4 1000 м
[Cu med, cong]
+25.0 +16.2 58 +28 +30 жарко 1015.6 990.0
СЗ 4 20 км 3/3 1000 м
[Cu med, cong]
+25.6 +15.3 53 +29 +30 душно 1015.7 990.2
СЗ 4 20 км 1/1 1000 м
[Sc diur, vesp]
+24.0 +15.2 58 +27 +27 жарко 1016.3 990.6
СЗ 3 20 км {гроза} 1/1 1000 м
[Sc diur, vesp]
+21.8 +14.7 64 +25 +25 комфорт 1016.9 991.0 +16.6 +27.1 0.6
штиль 0 20 км н/о +18.8 +14.9 78 +20 +20 1017.7 991.5
Ю 2 20 км н/о +16.6 +14.6 88 +17 +17 1018.2 991.8
ЮЗ 2 20 км н/о +15.9 +14.9 94 +16 +16 1018.2 991.8
ЮЗ 2 20 км н/о +14.9 +13.9 94 +15 +15 1018.6 992.1
ЮЗ 2 20 км н/о +14.2 +13.4 95 +14 +14 1018.6 992.0
ЮЗ 2 14 км н/о +13.8 +13.3 97 +13 +13 1018.8 992.2
Ю 1 14 км н/о +13.6 +13.1 97 +14 +14 1018.9 992.2
ЮЗ 2 13 км н/о +13.1 +12.6 97 +12 +12 1018.9 992.2
ЮЗ 1 11 км н/о +12.7 +12.2 97 +13 +13 1018.9 992.2
штиль 0 17 км н/о +14.4 +13.9 97 +14 +14 1019.0 992.4
штиль 0 20 км н/о +17.0 +15.3 90 +17 +17 1018.8 992.5
штиль 0 20 км 3/3 600 м
[Cu med, cong]
+19.1 +16.1 83 +20 +25 1018.7 992.5 +12.6 +21.8 0.6
Ю 2 20 км 6/3 600 м
[Cu med, cong Ac trans Ci]
+23.0 +16.1 65 +27 +32 душно 1018.2 992.4
ЮЗ 3 20 км 6/3 1000 м
[Cu med, cong Ci sp]
+25.4 +14.5 51 +28 +34 жарко 1017.9 992.3
З 4 20 км 6/3 1000 м
[Cu med, cong Ci sp]
+26.1 +14.2 48 +28 +35 жарко 1017.8 992.3
З 5 20 км 5/3 1500 м
[Cu med, cong Ci sp]
+26.0 +12.4 43 +28 +33 жарко 1017.5 992.0
СЗ 5 20 км 4/4 1500 м
[Cu med, cong Ci sp]
+26.2 +13.7 46 +28 +33 жарко 1017.3 991.8
СЗ 7-12
{12}
20 км 4/4 1500 м
[Cu med, cong]
+26.5 +13.9 46 +29 +31 жарко 1017.1 991.6
З 5 20 км 4/4 1500 м
[Cu med, cong]
+27.0 +12.6 41 +29 +32 жарко 1016.6 991.2
З 5 20 км 4/4 1500 м
[Cu med, cong]
+26.8 +12.1 40 +28 +31 жарко 1016.4 991.0
З 5 20 км 3/3 1500 м
[Cu med, cong]
+26.4 +11.7 40 +28 +29 жарко 1016.4 990.9
СЗ 6 20 км 1/1 1500 м
[Cu hum]
+25.7 +10.7 39 +27 +27 жарко 1016.3 990.8
СЗ 5 20 км 3/1 1500 м
[Sc diur, vesp Ci fib]
+24.1 +11.1 44 +25 +26 комфорт 1016.5 990.8
СЗ 3 20 км 3/0
[Ci fib]
+21.2 +11.8 55 +23 +23 комфорт 1016.9 991.0 +19.1 +27.7
СЗ 3 20 км н/о +18.0 +11.3 65 +18 +18 1017.6 991.4
СЗ 3 20 км н/о +17.2 +10.1 63 +17 +17 1017.8 991.5
ЮЗ 3 20 км н/о +13.9 +11.1 83 +13 +13 1018.3 991.7
З 2 20 км н/о +12.9 +10.8 87 +12 +12 1018.5 991.8
ЮЗ 2 20 км н/о +12.2 +10.6 90 +11 +11 1018.6 991.8
ЮЗ 2 20 км н/о +12.1 +11.2 94 +11 +11 1018.4 991.6
ЮЗ 2 20 км н/о +12.5 +11.6 94 +11 +11 1018.0 991.3
штиль 0 20 км н/о +12.8 +11.4 91 +12 +12 1017.5 990.8
СЗ 1 20 км н/о +11.4 +10.3 93 +11 +11 1017.6 990.8
штиль 0 20 км н/о +13.1 +11.8 92 +13 +13 1017.2 990.5
штиль 0 20 км н/о +14.4 +11.9 85 +14 +14 1016.6 990.1
штиль 0 20 км 9/0
[Ac As]
+15.6 +11.2 75 +15 +18 1016.7 990.3 +11.1 +21.2
Ю 2 20 км 9/0
[Ac As]
+17.7 +12.2 70 +18 +21 1015.9 989.7
З 4 20 км 6/0
[Ac trans]
+20.9 +10.4 51 +23 +28 комфорт 1015.4 989.5
З 6 20 км 4/1 1000 м
[Cu hum Ac trans]
+23.0 +9.0 41 +24 +28 комфорт 1014.7 989.0
З 7 20 км 4/3 1000 м
[Cu hum Ac trans]
+23.9 +7.5 35 +24 +27 комфорт 1014.1 988.5
З 6 20 км 4/3 1500 м
[Cu hum Ac trans]
+24.3 +7.0 33 +24 +28 комфорт 1013.6 988.0
СЗ 7
{12}
20 км 4/3 1500 м
[Cu hum Ac trans]
+24.8 +5.5 29 +24 +27 комфорт 1013.4 987.9
СЗ 6-11
{11}
20 км 4/3 1500 м
[Cu med, cong Ac trans]
+24.7 +6.4 31 +25 +27 комфорт 1013.2 987.7
СЗ 7 20 км 3/3 1500 м
[Cu med, cong]
+23.3 +6.5 34 +24 +25 комфорт 1013.5 987.8
СЗ 7
{11}
20 км 4/4 1500 м
[Cu med, cong]
+23.6 +8.4 38 +24 +25 комфорт 1013.5 987.9
СЗ 5
{12}
20 км 3/3 1500 м
[Cu hum]
+22.4 +9.5 44 +24 +25 комфорт 1013.7 988.0
СЗ 6 20 км 1/1 1500 м
[Sc diur, vesp]
+21.1 +9.0 46 +22 +23 комфорт 1014.1 988.2
СЗ 3
{12}
20 км 1/1 1500 м
[Sc diur, vesp]
+18.3 +9.4 56 +19 +19 1014.6 988.5 +15.6 +25.2
СЗ 3 19 км н/о +16.3 +9.9 66 +16 +16 1015.2 988.9
З 2 20 км н/о +14.5 +10.3 76 +14 +14 1015.7 989.2
ЮЗ 2 20 км н/о +14.4 +11.2 81 +14 +14 1015.9 989.4
ЮЗ 1 20 км н/о +14.8 +11.4 80 +15 +15 1015.7 989.2
З 2 20 км н/о +14.8 +11.0 78 +15 +15 1015.7 989.2
СЗ 4 20 км н/о +13.8 +11.1 84 +12 +12 1015.8 989.2
З 3 20 км н/о +13.0 +10.9 87 +12 +12 1015.5 988.9
З 3 20 км н/о +14.1 +11.6 85 +13 +13 1015.2 988.7
З 3 20 км н/о +14.3 +11.8 85 +13 +13 1015.2 988.7
З 3 20 км н/о +14.8 +12.3 85 +14 +14 1015.4 988.9
СЗ 4 20 км н/о +16.2 +12.9 81 +15 +15 1015.3 989.0
СЗ 6 20 км 9/9 600 м
[Sc]
+16.2 +12.0 76 +15 +15 1015.5 989.2 +13.0 +18.3
СЗ 5 20 км 9/9 300 м
[Sc]
+15.8 +12.9 83 +15 +15 1015.7 989.3
СЗ 5 20 км 8/8 300 м
[Cu med, cong]
+17.7 +13.4 76 +17 +18 1015.5 989.3
С 5 20 км 6/6 600 м
[Cu med, cong]
+18.7 +13.8 73 +19 +22 1015.4 989.3
С 5 20 км 6/6 600 м
[Cu med, cong]
+19.2 +12.2 64 +20 +23 1015.4 989.3
С 6 20 км 6/6 600 м
[Cu med, cong]
+19.8 +11.6 59 +21 +23 комфорт 1015.3 989.3
СЗ 6 20 км 8/8 1000 м
[Cu med, cong]
+20.3 +12.3 60 +22 +23 комфорт 1015.3 989.3
СЗ 6 20 км 6/6 1000 м
[Cu med, cong]
+21.3 +12.7 58 +24 +25 комфорт 1015.0 989.1
СЗ 5 20 км 5/5 1000 м
[Cu med, cong]
+21.3 +12.4 57 +24 +26 комфорт 1014.6 988.7
СЗ 7 20 км 5/5 1000 м
[Cu med, cong]
+21.1 +11.1 53 +23 +23 комфорт 1014.7 988.8
СЗ 6 20 км 4/3 1000 м
[Cu hum Ci sp]
+20.7 +11.6 56 +23 +23 комфорт 1014.6 988.7
СЗ 4 20 км 5/5 1000 м
[Cb calv]
+20.7 +11.6 56 +23 +23 комфорт 1015.0 989.1
Ю 2 20 км 5/5 1000 м
[Cb calv]
+15.9 +11.3 74 +16 +16 1015.8 989.4 +15.6 +21.9
ЮЗ 3 20 км н/о +15.1 +11.1 77 +14 +14 1015.7 989.3
ЮЗ 3 20 км н/о +13.7 +10.9 83 +13 +13 1015.9 989.3
Ю 1 20 км н/о +13.1 +10.6 85 +13 +13 1016.3 989.7
ЮЗ 2 20 км н/о +10.5 +9.3 92 +9 +9 1016.5 989.6
ЮЗ 2 20 км н/о +10.5 +9.7 95 +9 +9 1016.4 989.5
ЮЗ 3 16 км н/о +9.9 +9.3 96 +8 +8 1016.5 989.6
ЮЗ 2 13 км н/о +9.5 +9.0 97 +8 +8 1016.6 989.6
ЮЗ 2 13 км н/о +9.3 +9.0 98 +7 +7 1016.4 989.4
З 2 12 км н/о +9.1 +8.8 98 +7 +7 1016.7 989.7
Ю 1 16 км н/о +10.4 +10.1 98 +10 +10 1016.7 989.8
ЮЗ 1 20 км н/о +13.4 +12.0 91 +14 +14 1016.4 989.8
СВ 1 20 км ясно +17.8 +13.5 76 +19 +25 1016.2 990.0 +8.9 +18.0
Ю 2 20 км ясно +20.5 +10.3 52 +23 +31 комфорт 1015.9 989.9
ЮЗ 2 20 км 3/3 600 м
[Cu med, cong]
+21.7 +9.9 47 +23 +31 комфорт 1015.9 990.0
С 3 20 км 3/3 1000 м
[Cu med, cong]
+22.5 +9.3 43 +24 +32 комфорт 1015.9 990.1
СЗ 2 20 км 3/3 1000 м
[Cu med, cong]
+23.0 +9.4 42 +25 +35 комфорт 1015.6 989.9
В 3
{7}
20 км 4/3 1000 м
[Cu med, cong Ci fib]
+23.9 +7.1 34 +24 +33 комфорт 1014.9 989.3
В 2
{7}
20 км 4/3 1500 м
[Cu med, cong Ci sp]
+24.5 +8.8 37 +25 +34 комфорт 1014.6 989.0
Ю 2 20 км 4/3 1500 м
[Cu med, cong Ci sp]
+25.4 +7.0 31 +25 +33 комфорт 1014.3 988.8
З 3 20 км 3/1 1500 м
[Cu med, cong Ci sp]
+25.5 +7.6 32 +26 +31 жарко 1013.8 988.3
Ю 2 20 км 3/1 1500 м
[Cu hum Ci fib]
+25.3 +9.2 36 +26 +30 жарко 1013.4 987.9
Ю 2 20 км 5/1 1500 м
[Sc diur, vesp Cs]
+24.7 +9.4 38 +25 +27 комфорт 1013.1 987.6
Ю 2 20 км 6/1 1500 м
[Sc diur, vesp Cs]
+23.3 +10.0 43 +25 +25 комфорт 1013.4 987.7
Ю 2 20 км 8/1 1500 м
[Sc diur, vesp Cs]
+20.5 +10.9 54 +23 +23 комфорт 1013.8 987.9 +17.8 +25.9
ЮЗ 2 20 км н/о +17.0 +11.3 69 +17 +17 1014.4 988.2
штиль 0 20 км н/о +14.8 +11.0 78 +15 +15 1014.7 988.3
Ю 2 20 км н/о +14.7 +10.7 77 +14 +14 1014.5 988.1
Ю 2 20 км н/о +14.0 +10.4 79 +14 +14 1014.8 988.3
штиль 0 20 км н/о +12.1 +9.7 85 +12 +12 1014.9 988.2
Ю 1 20 км н/о +13.9 +9.9 77 +14 +14 1014.6 988.1
В 2 20 км н/о +13.2 +9.6 79 +13 +13 1014.3 987.7
ЮВ 2 20 км н/о +14.2 +9.8 75 +14 +14 1013.9 987.4
В 2 20 км н/о +13.6 +9.4 76 +13 +13 1013.7 987.2
В 1 20 км н/о +13.8 +10.4 80 +14 +14 1013.5 987.0
В 2 20 км н/о +15.8 +12.2 79 +16 +16 1013.0 986.7
ЮВ 3 20 км 8/0
[Ac trans Cs]
+18.3 +11.1 63 +19 +22 1012.9 986.8 +11.9 +20.5
ЮВ 3 20 км 6/0
[Ac trans Cs]
+19.9 +12.2 61 +22 +27 комфорт 1012.2 986.3
ЮВ 3 20 км 6/0
[Ac trans Cc]
+22.8 +13.0 54 +26 +33 жарко 1011.6 985.9
Ю 4 20 км 6/0
[Ac trans Cc]
+25.6 +12.1 43 +27 +34 жарко 1010.9 985.5
Ю 4 20 км 6/1 1000 м
[Cu hum Ac trans Cc]
+26.6 +12.3 41 +28 +35 жарко 1010.6 985.3
ЮВ 4 20 км 6/1 1500 м
[Cu hum Ac und Ci fib]
+25.9 +10.1 37 +27 +33 жарко 1010.2 984.8
Ю 4 20 км 6/1 1500 м
[Cu hum Ac trans Ci fib]
+27.2 +9.5 33 +28 +33 жарко 1009.5 984.3
Ю 4
{8}
20 км 5/1 1500 м
[Cu hum Ac trans Ci fib]
+27.3 +9.2 32 +27 +33 жарко 1009.1 983.9
Ю 3 20 км 5/1 1500 м
[Cu hum Ac trans Ci fib]
+27.2 +8.1 30 +27 +31 жарко 1008.8 983.6
Ю 3
{8}
20 км 8/1 1500 м
[Cu hum Ac und Ci sp]
+26.3 +10.4 37 +27 +29 жарко 1008.7 983.4
Ю 2 20 км 6/1 1500 м
[Sc diur, vesp Ac trans Ci sp]
+26.3 +10.0 36 +27 +28 жарко 1008.3 983.0
ЮВ 2 20 км 8/3 1500 м
[Sc diur, vesp Ac trans Ci sp]
+24.7 +10.9 42 +26 +26 жарко 1008.3 982.9
ЮВ 2
{8}
13 км 9/5 1500 м
[Sc Ac trans Ci sp]
+22.7 +12.0 51 +25 +25 комфорт 1008.4 982.8 +18.2 +28.3
ЮЗ 4 20 км н/о +22.1 +13.7 59 +25 +25 комфорт 1008.8 983.2
Ю 2 20 км н/о +19.2 +13.6 70 +21 +21 комфорт 1009.1 983.2
Ю 2 20 км н/о +19.7 +14.1 70 +22 +22 комфорт 1009.1 983.2
Местоположение метеостанции Замостье (Польша): широта 50.70 долгота 23.25 высота над уровнем моря 213 м.
В архиве по умолчанию представлена погода в Замостье за последнюю неделю. Архивные данные за месяц целиком и за предыдущие месяцы, начиная с января 2011 года, Вы можете получить, выбрав интересующий диапазон дат из раскрывающегося списка и нажав кнопку "Найти!".
*Определитесь, кто Вы:
Внимание! Время в таблицах - всемирное. Для получения местного времени необходимо прибавить поправку, которая равна 1 ч.
Смотрите также архив погоды в соседних городах и на ближайших метеорологических станциях:
Партнеры нашего сайта:      
Пояснения к столбцам:
  • Ветер - указаны скорость ветра в м/с - средняя за 10 мин, порывы в срок и между сроками (в фигурных скобках) и направление, откуда дует ветер: С - северный,
  • СВ - северо-восточный, В - восточный, ЮВ - юго-восточный, Ю - южный, ЮЗ - юго-западный, З - западный, СЗ - северо-западный.
  • Видимость - горизонтальная дальность видимости в метрах или километрах. При видимости от 1 до 10 км при отсутствии осадков обычно наблюдается дымка, при ухудшении видимости до 1 км и менее - туман. В сухую погоду видимость может ухудшаться дымом, пылью или мглою.
  • Явления - указаны атмосферные явления, наблюдавшиеся в срок или в последний час перед сроком; фигурными скобками обозначены явления, наблюдавшиеся между сроками (за 1-3 часа до срока); квадратными скобками обозначены град или гололедные отложения с указанием их диаметра в мм.
  • Облачность - указаны через наклонную черту общая и нижняя облачность в баллах и высота нижней границы облаков в метрах; квадратными скобками обозначены формы облаков: Ci - перистые, Cs - перисто-слоистые, Cc - перисто-кучевые, Ac - высококучевые, As - высокослоистые, Sc - слоисто-кучевые, Ns - слоисто-дождевые, Cu - кучевые, Cb - кучево-дождевые. Подробнее классификацию облаков см. в Атласе облаков (PDF).
  • T - Температура воздуха - температура, измеренная на высоте 2 м над землей.
  • Td - Температура точки росы - температура, при понижении до которой содержащийся в воздухе водяной пар достигнет насыщения.
  • f - Относительная влажность воздуха - влажноcть воздуха, измеренная на высоте 2 м над землей.
  • Te - Эффективная температура - температура, которую ощущает одетый по сезону человек в тени. Характеристика душности погоды. При расчете учитывается влияние влажности воздуха и скорости ветра на теплоощущения человека.
  • Tes - Эффективная температура на солнце - температура, которую ощущает человек, с поправкой на солнечный нагрев. Характеристика знойности погоды. Зависит от высоты солнца над горизонтом, облачности и скорости ветра. Ночью, в пасмурную погоду, а также при ветре 12 м/с и более поправка равна нулю.
  • P - Атмосферное давление - приведенное к уровню моря атмосферное давление.
  • Po - Атмосферное давление - измеренное на уровне метеостанции атмосферное давление.
  • Tmin - Минимальная температура - минимум температуры воздуха на высоте 2 м над землей.
  • Tmax - Максимальная температура - максимум температуры воздуха на высоте 2 м над землей.
  • R - Количество осадков - Количество выпавших осадков за период времени, мм. При наведении курсора мыши на число - период времени, за который выпало указанное количество осадков.
  • R24 - Количество осадков - Количество выпавших осадков за 24 часа, мм.
  • S - Снежный покров - Высота снежного покрова, см. При наведении курсора мыши на число - состояние снежного покрова и степень покрытия местности в баллах.